User: anonymous   Login
Location: Unspecified
(0.0000°N, 0.0000°E)
Time: 19:22:44
(UTC+00:00)
Language:

STARLINK-32885 - Orbit

View from above orbital plane
View from above orbital plane
View from above satellite
View from above satellite

Ground track
Ground track

The orbit is defined by the following mean orbital elements,

1 62958U          26145.50463189 +.00000000 +00000-0 +57747-3 0 00000
2 62958  53.1603 233.1503 0000752 355.0574   5.0421 15.34396835    09
Epoch (UTC): 25 May 2026 12:06:40
Eccentricity: 0.0000752
inclination: 53.1603°
perigee height: 462 km
apogee height: 463 km
right ascension of ascending node: 233.1503°
argument of perigee: 355.0574°
revolutions per day: 15.34396835
mean anomaly at epoch: 5.0421°

The dashed part of the orbit path shows where the satellite is in the earth's shadow,  

DLR